Wind_Speed
69 64 56 52 52 50 49 32 52 49 47 44 41 34 27 25 24 22 23 23 21 20 20 18 18 21 16 17 18 29 34 25 24 23 20 24 25 26 27 21 17 15 15 14
68 61 58 53 53 52 54 48 46 45 41 38 36 30 25 28 24 23 25 21 20 17 19 18 18 17 14 15 18 23 33 39 28 28 26 25 30 26 25 27 23 22 19 19
68 64 56 55 50 49 49 44 42 37 34 33 31 25 25 30 26 24 23 26 18 14 14 15 17 17 16 14 14 18 22 31 40 28 29 24 30 30 27 29 30 27 25 26
65 58 53 48 46 44 41 40 37 31 31 31 28 23 25 28 29 25 25 25 19 18 14 14 16 17 16 11 10 12 14 19 32 37 33 31 33 31 27 31 34 32 30 28
59 48 48 45 42 41 40 36 36 31 32 31 28 25 32 29 27 25 25 22 24 22 20 16 18 20 18 7 10 11 10 9 23 30 33 38 34 35 30 26 26 24 24 28
47 45 45 46 42 40 36 38 35 34 32 32 30 29 32 28 29 27 26 27 24 21 20 15 16 22 18 9 10 9 10 9 12 18 30 34 36 36 37 37 37 38 35 32
44 45 44 40 40 37 37 37 37 36 35 35 31 34 34 28 28 30 26 26 25 23 26 17 15 20 15 11 8 10 14 15 12 16 22 34 33 37 37 28 29 33 36 34
42 42 41 41 40 38 40 40 39 37 36 36 34 40 37 38 34 31 27 29 26 22 26 23 17 20 16 16 10 7 12 20 18 13 13 39 38 32 30 29 29 33 35 33
42 43 38 37 41 39 42 41 43 39 38 42 43 43 41 37 39 38 35 29 27 22 27 25 20 21 21 19 16 9 16 22 14 12 8 24 39 39 26 26 24 26 26 27
42 41 39 40 40 41 42 42 41 41 40 40 43 43 46 40 45 42 35 29 29 28 29 27 23 22 21 21 24 28 22 14 7 11 9 9 15 36 30 27 26 30 29 26
40 42 40 37 40 42 41 41 41 40 39 42 22 43 47 44 41 39 37 33 31 30 29 28 25 21 20 21 20 23 25 14 5 6 8 1 13 22 30 34 25 28 24 21
43 44 38 40 39 37 37 38 38 42 41 42 44 46 47 45 40 38 32 34 32 33 30 28 26 20 18 18 16 15 11 14 5 10 10 13 23 23 32 29 28 27 26 24
43 41 41 40 38 36 37 39 40 40 42 40 36 41 42 40 41 37 34 34 34 35 33 30 27 20 17 19 19 19 16 17 12 15 12 21 17 13 16 20 24 26 29 28
44 42 41 39 40 37 33 32 35 37 37 41 37 42 40 35 41 41 38 36 38 38 34 30 27 23 21 19 23 18 23 22 18 18 17 18 21 19 13 11 13 18 23 28
43 41 41 43 38 33 34 38 36 35 34 39 45 32 39 42 45 48 43 38 38 39 36 31 27 25 24 21 24 17 27 23 30 21 24 22 28 26 23 18 15 17 16 14
42 40 42 42 39 36 39 39 36 37 36 36 28 43 35 39 44 41 43 38 39 39 38 30 27 26 25 26 23 22 30 26 35 31 27 26 25 27 28 25 23 21 20 21
42 42 42 41 41 43 41 39 38 39 39 40 44 47 55 47 42 38 36 39 40 40 38 31 29 26 28 27 25 28 33 34 37 40 32 32 31 30 31 29 29 29 29 29
43 44 44 45 47 42 36 40 41 40 40 43 43 41 37 50 57 53 47 46 38 41 36 33 31 28 28 30 28 29 27 38 36 43 38 33 34 36 32 28 29 30 28 26
49 48 47 47 47 43 40 37 38 42 41 42 43 46 48 51 47 49 51 42 39 39 36 34 32 29 28 30 29 30 29 36 37 32 34 38 32 36 37 36 37 36 35 32
52 50 49 48 46 44 47 40 39 45 51 43 45 48 51 51 43 36 45 43 41 39 40 35 32 32 29 30 29 31 33 30 38 36 36 34 33 38 41 35 34 38 37 34
53 53 51 49 47 50 45 38 41 46 48 42 46 47 52 50 42 35 41 43 42 40 40 38 32 31 31 29 31 31 35 34 37 41 41 41 40 40 39 41 40 38 39 36
57 57 56 54 46 52 44 37 51 44 44 38 37 44 46 49 48 47 47 46 43 40 39 38 32 32 32 31 32 33 36 37 37 41 41 40 40 42 42 43 42 41 41 39
60 58 59 57 48 37 35 41 49 42 41 38 40 41 42 44 43 41 42 43 41 40 37 35 33 34 35 34 34 33 36 37 39 42 41 36 37 37 41 42 41 44 46 44
64 60 61 57 56 58 60 51 48 47 43 39 39 38 37 39 42 43 44 37 39 35 33 34 38 41 43 44 38 37 36 36 41 46 42 39 37 40 41 39 39 41 44 45
70 66 62 59 57 57 55 52 47 46 45 42 37 38 40 44 45 42 36 38 33 31 34 37 41 47 49 46 42 40 41 40 40 44 49 46 43 43 42 42 40 41 43 45
75 74 69 62 56 53 50 52 49 48 44 42 43 40 40 42 42 39 40 34 32 31 31 34 32 31 36 38 40 41 43 39 40 40 45 49 49 47 48 49 48 46 53 55
Wind_Direction
287 291 292 297 295 294 295 276 289 297 299 302 304 306 296 290 283 293 298 290 290 291 287 289 288 286 266 236 227 213 208 204 218 227 224 218 214 206 203 197 200 214 213 214
283 286 289 291 291 290 292 292 290 293 294 298 299 301 279 286 289 292 303 298 279 278 289 294 286 279 284 257 236 223 220 219 225 236 244 235 218 214 212 211 218 225 229 235
281 283 287 287 285 283 286 285 286 288 290 287 294 290 282 284 284 288 296 303 286 278 289 292 286 287 292 281 266 229 221 228 226 216 226 234 215 217 218 225 225 229 232 260
281 282 281 276 274 274 274 280 279 281 279 278 287 275 269 277 285 284 290 303 306 300 291 295 301 300 306 296 271 273 242 227 234 232 233 227 228 228 231 230 230 235 246 251
275 272 270 267 262 266 267 267 269 271 269 272 275 266 267 273 283 280 285 299 310 292 297 304 307 303 317 290 280 291 298 273 234 231 223 224 221 226 223 226 225 230 240 238
262 254 256 259 260 258 263 262 267 268 265 265 264 266 271 274 274 275 283 299 300 298 304 290 294 295 308 270 284 293 319 307 252 239 223 227 228 231 230 233 238 241 240 244
245 248 251 252 253 258 259 262 265 264 261 255 256 262 267 274 275 275 283 289 303 289 297 286 287 293 295 248 276 305 310 334 304 270 238 233 243 232 235 242 228 230 235 241
242 246 245 246 251 255 261 262 262 259 257 256 247 262 266 268 269 273 276 282 295 286 294 292 281 289 279 243 264 311 355 346 330 288 252 219 236 235 241 231 230 234 238 241
241 243 246 251 256 259 261 265 258 258 250 248 248 253 259 261 266 272 273 279 288 287 288 291 284 279 270 252 241 274 320 350 347 39 18 221 231 235 249 234 235 237 246 240
240 244 245 252 257 259 262 259 257 251 247 246 253 254 257 264 268 269 269 275 280 289 286 286 281 277 276 265 255 262 281 321 110 63 49 31 229 236 245 246 226 224 229 243
241 247 249 255 259 262 262 256 250 251 244 244 252 263 255 262 265 271 266 270 275 282 293 286 275 271 272 264 271 270 276 259 171 357 84 356 270 245 235 247 239 232 231 250
242 248 252 259 263 264 258 252 247 244 248 245 240 235 251 261 265 269 267 266 271 280 292 283 270 266 264 255 255 264 252 204 172 223 240 206 220 258 243 247 244 237 245 249
248 250 254 259 263 255 255 254 251 248 249 248 244 253 250 256 256 261 269 263 270 283 289 281 272 263 253 241 233 241 260 202 204 223 239 219 230 229 238 236 238 240 247 252
247 251 258 258 253 253 258 261 257 252 251 244 239 250 254 256 254 261 266 266 271 281 284 281 271 264 256 241 238 240 248 216 204 219 227 238 236 228 224 225 217 230 241 246
249 255 257 254 253 241 252 258 260 257 248 242 235 258 268 258 267 269 267 265 271 276 282 274 267 264 257 257 244 252 240 228 208 212 233 247 234 238 242 256 253 267 263 269
251 257 257 256 247 239 251 256 263 259 252 246 238 219 187 228 261 251 257 263 267 274 279 271 263 256 254 254 253 248 231 238 223 224 221 226 236 228 232 252 266 266 260 256
251 253 255 249 244 243 250 260 263 259 251 246 239 235 229 235 244 248 256 260 262 271 274 272 266 255 255 258 251 248 222 232 223 229 220 228 227 238 259 262 256 263 262 260
251 252 251 246 246 252 257 259 263 260 250 244 246 248 234 244 248 253 256 258 260 268 270 267 263 257 257 260 252 249 240 226 231 228 235 234 235 241 247 247 248 250 253 255
251 252 250 247 247 255 255 264 265 257 248 247 246 241 236 239 249 249 255 258 261 265 269 265 261 256 258 258 257 252 250 220 229 227 236 236 241 246 246 255 252 250 258 259
245 248 247 247 248 253 254 260 265 252 250 250 252 240 240 243 246 257 262 261 263 265 269 266 262 259 260 258 260 255 251 241 223 230 236 238 240 244 249 253 252 253 257 259
241 244 243 244 247 248 262 264 265 257 256 254 253 247 238 240 241 225 257 255 258 261 265 267 262 258 263 263 262 262 250 243 235 233 240 242 241 240 248 256 257 261 259 260
238 239 239 240 243 257 255 260 253 263 258 253 251 250 241 242 243 241 246 252 256 259 262 264 255 255 262 263 263 265 250 241 236 232 236 243 247 247 246 251 255 258 260 261
236 238 241 240 241 227 265 252 257 253 253 251 244 245 244 245 249 250 249 251 256 259 259 259 259 257 262 261 263 246 248 244 235 228 233 241 246 246 245 251 254 254 256 260
233 234 238 239 232 230 238 251 249 248 248 250 250 248 249 250 251 250 249 247 250 253 260 263 264 263 263 260 257 236 242 243 238 230 231 235 239 245 250 246 246 250 252 254
233 233 235 237 237 234 239 243 243 242 245 244 247 249 251 253 252 252 243 243 248 255 263 271 274 266 259 253 250 235 240 246 241 238 234 235 238 239 246 246 245 250 259 264
236 231 232 236 237 237 236 239 233 236 240 242 246 249 252 257 254 239 235 238 245 257 267 273 276 260 244 242 244 236 231 240 246 244 241 241 244 246 246 246 252 259 260 262
Height
10949 10952 10954 10955 10954 10952 10955 10966 10951 10947 10941 10937 10937 10936 10932 10933 10929 10927 10925 10923 10921 10920 10919 10919 10917 10914 10914 10915 10914 10916 10920 10923 10926 10929 10932 10935 10937 10940 10942 10945 10947 10949 10950 10953
10938 10941 10945 10944 10943 10942 10941 10944 10940 10936 10933 10931 10931 10930 10929 10925 10924 10922 10920 10921 10920 10919 10919 10916 10914 10912 10910 10911 10911 10912 10915 10918 10922 10925 10927 10930 10933 10936 10939 10943 10943 10946 10948 10949
10928 10930 10933 10932 10931 10932 10932 10931 10929 10927 10926 10924 10926 10925 10923 10920 10919 10919 10917 10917 10918 10918 10917 10914 10910 10908 10908 10907 10907 10909 10910 10913 10915 10919 10921 10924 10927 10932 10934 10937 10939 10942 10942 10944
10916 10918 10919 10922 10921 10923 10923 10923 10922 10921 10919 10919 10920 10921 10918 10915 10915 10915 10913 10914 10914 10913 10912 10910 10907 10906 10906 10905 10904 10904 10906 10908 10908 10912 10916 10918 10922 10925 10928 10930 10933 10937 10937 10938
10905 10907 10907 10910 10910 10915 10916 10915 10914 10915 10913 10914 10914 10913 10911 10910 10911 10911 10909 10911 10911 10908 10907 10906 10905 10904 10903 10902 10902 10902 10903 10903 10903 10904 10907 10910 10913 10917 10921 10925 10927 10929 10931 10934
10896 10895 10896 10898 10902 10903 10910 10906 10909 10909 10909 10908 10907 10907 10903 10905 10905 10907 10906 10908 10906 10904 10904 10903 10902 10900 10901 10900 10899 10899 10897 10897 10898 10898 10899 10902 10906 10909 10913 10916 10920 10923 10925 10927
10884 10885 10888 10892 10892 10897 10899 10900 10901 10902 10902 10901 10903 10900 10897 10900 10900 10902 10904 10903 10902 10901 10899 10899 10898 10896 10896 10897 10896 10894 10893 10892 10891 10890 10893 10895 10899 10905 10907 10910 10913 10916 10919 10921
10875 10878 10880 10882 10885 10889 10890 10893 10893 10893 10895 10896 10896 10892 10892 10893 10894 10898 10899 10899 10899 10897 10895 10895 10893 10891 10892 10893 10892 10891 10889 10887 10886 10884 10886 10890 10894 10898 10903 10907 10910 10911 10914 10916
10866 10868 10875 10877 10876 10882 10882 10885 10882 10886 10887 10886 10887 10886 10885 10886 10888 10892 10893 10894 10894 10893 10892 10890 10888 10886 10887 10888 10889 10888 10886 10886 10885 10883 10883 10886 10888 10894 10900 10904 10905 10907 10910 10912
10857 10861 10866 10868 10869 10871 10874 10874 10876 10876 10878 10879 10879 10882 10875 10882 10884 10886 10887 10888 10889 10888 10886 10885 10882 10881 10882 10884 10885 10885 10886 10888 10887 10885 10886 10889 10890 10890 10896 10900 10900 10902 10905 10907
10849 10851 10857 10861 10860 10861 10864 10865 10866 10865 10872 10872 10885 10878 10875 10874 10879 10880 10882 10883 10883 10882 10881 10879 10876 10878 10878 10879 10880 10880 10881 10886 10886 10885 10885 10887 10888 10889 10892 10895 10896 10898 10900 10902
10838 10841 10849 10849 10851 10852 10853 10854 10856 10856 10860 10861 10869 10867 10866 10871 10872 10874 10876 10877 10877 10876 10874 10872 10871 10873 10874 10875 10874 10875 10876 10880 10882 10882 10883 10880 10886 10887 10887 10890 10893 10894 10896 10897
10829 10834 10837 10839 10842 10842 10844 10844 10846 10849 10852 10855 10859 10855 10861 10863 10865 10867 10869 10870 10870 10869 10867 10866 10866 10868 10869 10869 10868 10870 10871 10873 10877 10877 10878 10880 10882 10882 10883 10884 10886 10889 10891 10892
10818 10824 10827 10829 10830 10832 10835 10836 10838 10841 10845 10847 10851 10848 10852 10856 10857 10858 10860 10863 10863 10862 10861 10860 10860 10861 10863 10864 10863 10864 10866 10870 10872 10873 10874 10876 10878 10879 10880 10881 10882 10884 10885 10886
10809 10814 10816 10816 10821 10825 10827 10827 10829 10833 10835 10838 10841 10847 10847 10851 10850 10850 10852 10855 10855 10854 10853 10853 10855 10854 10856 10859 10858 10859 10860 10863 10866 10869 10871 10872 10874 10876 10878 10879 10880 10881 10881 10881
10800 10805 10806 10809 10811 10817 10818 10819 10821 10824 10826 10830 10845 10841 10855 10842 10842 10841 10843 10845 10845 10846 10845 10846 10847 10848 10850 10850 10852 10853 10854 10857 10859 10863 10866 10868 10870 10871 10873 10875 10875 10876 10877 10878
10790 10794 10797 10801 10801 10805 10810 10812 10813 10814 10817 10819 10821 10824 10836 10830 10827 10830 10835 10837 10837 10838 10837 10838 10840 10841 10842 10842 10844 10845 10847 10850 10854 10855 10860 10862 10865 10866 10867 10869 10869 10870 10870 10871
10779 10783 10787 10790 10790 10796 10803 10802 10803 10805 10807 10808 10812 10815 10819 10817 10819 10822 10826 10828 10830 10829 10829 10829 10831 10833 10835 10835 10836 10837 10840 10844 10846 10850 10852 10855 10858 10860 10859 10861 10861 10862 10863 10865
10766 10771 10776 10779 10782 10787 10791 10795 10794 10793 10796 10800 10805 10806 10807 10807 10810 10816 10819 10821 10821 10820 10820 10820 10822 10824 10827 10827 10828 10829 10831 10835 10839 10843 10844 10847 10849 10851 10852 10854 10854 10855 10856 10857
10751 10758 10764 10769 10774 10776 10778 10786 10784 10781 10780 10794 10793 10795 10798 10798 10808 10816 10813 10818 10813 10811 10811 10812 10813 10815 10817 10818 10818 10820 10822 10826 10830 10834 10836 10839 10841 10841 10844 10847 10847 10848 10848 10849
10739 10745 10753 10757 10762 10763 10773 10779 10772 10769 10770 10779 10778 10781 10784 10788 10805 10795 10787 10803 10804 10801 10802 10802 10805 10806 10807 10808 10809 10811 10812 10816 10820 10824 10827 10829 10832 10833 10835 10837 10839 10839 10840 10840
10728 10731 10741 10746 10755 10752 10767 10764 10761 10760 10762 10767 10769 10768 10772 10777 10784 10793 10795 10792 10790 10791 10791 10793 10796 10797 10796 10798 10800 10801 10803 10805 10810 10814 10817 10820 10822 10824 10825 10827 10829 10829 10830 10830
10711 10720 10723 10735 10745 10757 10749 10750 10749 10750 10753 10756 10758 10760 10763 10766 10769 10774 10777 10778 10780 10781 10781 10783 10786 10786 10786 10788 10789 10790 10791 10794 10798 10803 10807 10810 10811 10814 10816 10817 10818 10820 10820 10819
10699 10705 10708 10720 10730 10736 10736 10739 10739 10740 10743 10746 10749 10752 10755 10758 10760 10763 10765 10767 10769 10772 10773 10773 10774 10774 10775 10775 10778 10780 10781 10784 10787 10791 10795 10799 10803 10803 10804 10807 10808 10807 10807 10808
10681 10692 10697 10705 10714 10721 10726 10729 10729 10730 10733 10736 10738 10741 10744 10747 10749 10752 10755 10758 10760 10762 10763 10762 10761 10759 10759 10761 10764 10768 10771 10774 10778 10780 10784 10787 10790 10793 10794 10795 10796 10797 10797 10797
10661 10670 10680 10688 10701 10706 10713 10712 10716 10719 10722 10726 10728 10731 10734 10736 10737 10741 10745 10747 10750 10753 10753 10752 10747 10746 10747 10750 10753 10757 10761 10764 10767 10771 10773 10775 10778 10780 10782 10784 10785 10785 10784 10783